TimeEDT,TemperatureF,Dew PointF,Humidity,Sea Level PressureIn,VisibilityMPH,Wind Direction,Wind SpeedMPH,Gust SpeedMPH,PrecipitationIn,Events,Conditions,WindDirDegrees,DateUTC
12:53 AM,50.0,37.9,63,29.85,10.0,Calm,Calm,-,N/A,,Clear,0,2011-10-21 04:53:00
1:53 AM,48.9,37.0,64,29.86,10.0,Calm,Calm,-,N/A,,Clear,0,2011-10-21 05:53:00
2:53 AM,48.0,37.0,66,29.88,10.0,Calm,Calm,-,N/A,,Clear,0,2011-10-21 06:53:00
3:53 AM,46.9,37.0,68,29.88,10.0,SSW,5.8,-,N/A,,Partly Cloudy,200,2011-10-21 07:53:00
4:53 AM,46.0,37.9,73,29.90,10.0,SSW,4.6,-,N/A,,Partly Cloudy,200,2011-10-21 08:53:00
5:53 AM,45.0,39.0,80,29.92,10.0,SE,4.6,-,N/A,,Mostly Cloudy,130,2011-10-21 09:53:00
6:53 AM,48.9,37.0,64,29.94,10.0,SSW,5.8,-,N/A,,Mostly Cloudy,200,2011-10-21 10:53:00
7:53 AM,48.9,37.9,66,29.96,10.0,SW,9.2,-,N/A,,Mostly Cloudy,220,2011-10-21 11:53:00
8:53 AM,51.1,39.9,66,30.00,10.0,SW,10.4,-,N/A,,Overcast,220,2011-10-21 12:53:00
9:53 AM,53.1,37.9,57,30.01,10.0,South,5.8,-,N/A,,Partly Cloudy,190,2011-10-21 13:53:00
10:53 AM,55.4,39.2,54,30.02,10.0,Variable,4.6,-,N/A,,Scattered Clouds,0,2011-10-21 14:53:00
11:53 AM,57.0,39.9,53,30.02,10.0,Variable,3.5,-,N/A,,Scattered Clouds,0,2011-10-21 15:53:00
12:53 PM,57.0,39.9,53,30.01,10.0,WSW,9.2,-,N/A,,Overcast,240,2011-10-21 16:53:00
1:53 PM,59.0,39.9,49,30.01,10.0,Variable,5.8,-,N/A,,Overcast,0,2011-10-21 17:53:00
2:53 PM,59.0,39.9,49,30.01,10.0,Variable,4.6,-,N/A,,Overcast,0,2011-10-21 18:53:00
3:26 PM,59.0,39.2,48,30.01,10.0,West,11.5,-,N/A,,Overcast,280,2011-10-21 19:26:00
3:53 PM,60.1,41.0,49,30.01,10.0,West,11.5,-,N/A,,Mostly Cloudy,280,2011-10-21 19:53:00
4:53 PM,60.1,41.0,49,30.03,10.0,Variable,3.5,-,N/A,,Partly Cloudy,0,2011-10-21 20:53:00
5:53 PM,57.0,42.1,57,30.04,10.0,Calm,Calm,-,N/A,,Clear,0,2011-10-21 21:53:00
6:53 PM,50.0,44.1,80,30.06,10.0,Calm,Calm,-,N/A,,Scattered Clouds,0,2011-10-21 22:53:00
7:53 PM,48.0,42.1,80,30.08,10.0,Calm,Calm,-,N/A,,Partly Cloudy,0,2011-10-21 23:53:00
8:53 PM,48.9,41.0,74,30.09,10.0,Calm,Calm,-,N/A,,Clear,0,2011-10-22 00:53:00
9:53 PM,46.0,42.1,86,30.11,10.0,Calm,Calm,-,N/A,,Partly Cloudy,0,2011-10-22 01:53:00
10:53 PM,46.4,42.8,87,30.12,10.0,Calm,Calm,-,N/A,,Mostly Cloudy,0,2011-10-22 02:53:00
11:53 PM,45.0,41.0,86,30.12,10.0,Calm,Calm,-,N/A,,Clear,0,2011-10-22 03:53:00